{"data":{"norad_id":64060,"intl_designator":"2025-105C","name":"TIANQI-18","alt_names":[],"object_type":"PAYLOAD","status":"ACTIVE","operator":null,"country":"PRC","launch_date":"2025-05-19","launch_site_code":"YSLA","launch_vehicle":null,"mission":null,"orbit_class":"UNKNOWN","rcs_meters":null,"size_class":null,"mass_kg":null,"dimensions":null,"purposes":[],"wikipedia_slug":null,"has_3d_model":false,"image_url":null,"decayed_at":null,"tle_current":{"epoch":"2026-09-21T13:51:41.157216Z","epoch_age_seconds":102420,"freshness":"FRESH","line1":"1 64060U 25105C   26264.57755969  .00000009  00000+0  94432-4 0  9996","line2":"2 64060  44.9857 313.3735 0009336 134.7608 225.3985 13.99162852 68699","mean_motion":13.99162852,"eccentricity":0.0009336,"inclination_deg":44.9857,"raan_deg":313.3735,"arg_perigee_deg":134.7608,"mean_anomaly_deg":225.3985,"bstar":9.4432e-5,"rev_number":6869,"period_min":102.91868440772,"perigee_km":889.90369925483,"apogee_km":903.48726646683,"semimajor_km":7274.8324828608,"source":"CELESTRAK","updated_at":"2026-09-22T09:00:29.524841Z"}}}